Location: Dover
(48.8500°N, 53.9833°W)
Time: 06:41:15
(UTC+00:00)

Cosmos 2100 Rocket - Pass Details

Date: 14 November 2025
Orbit: 954 x 1000 km, 82.9° (Epoch: 12 December)

Event Time Altitude Azimuth Distance (km) Brightness Sun altitude
Rises 20:31:33 0° 192° (SSW) 3,650 7.5 -6.1°
Reaches altitude 10° 20:34:04 10° 194° (SSW) 2,701 6.9 -6.5°
Maximum altitude 20:40:15 75° 280° (W) 997 4.3 -7.4°
Drops below altitude 10° 20:46:25 10° 7° (N) 2,698 6.1 -8.4°
Sets 20:48:56 0° 9° (N) 3,646 6.7 -8.8°
